When you browse on this site, cookies collect data to enhance your experience and personalize the content and advertising you see.
Visit our Privacy Policy to learn more. By continuing to use the site, you agree to this use of cookies and data.
  • In Portugal
  • List of Countries
  • For 7 days
  • Water Temperature
  • Satellite Maps
  • Weather Map
  • Weather Widgets
  • user-avatar
    Login

    Hourly Weather Rundu

    Today, 26 March, Tuesday

    Time Temperature Precipitation Wind Pressure Humidity
    00:00 +24°C° 0 mm 1 mps 667 mmHg 43%
    01:00 +25°C° 0 mm 1 mps 667 mmHg 39%
    02:00 +25°C° 0 mm 1 mps 667 mmHg 40%
    03:00 +25°C° 0 mm 1 mps 667 mmHg 42%
    04:00 +23°C° 0 mm 0 mps 667 mmHg 43%
    05:00 +23°C° 0 mm 0 mps 667 mmHg 43%
    06:00 +24°C° 0 mm 0 mps 668 mmHg 43%
    07:00 +24°C° 0 mm 0 mps 668 mmHg 43%
    08:00 +30°C° 0 mm 1 mps 669 mmHg 36%
    09:00 +33°C° 0 mm 1 mps 670 mmHg 30%
    10:00 +37°C° 0 mm 1 mps 670 mmHg 24%
    11:00 +36°C° 0 mm 1 mps 670 mmHg 22%
    12:00 +37°C° 0 mm 2 mps 669 mmHg 20%
    13:00 +37°C° 0 mm 2 mps 668 mmHg 18%
    14:00 +37°C° 0 mm 2 mps 668 mmHg 18%
    15:00 +36°C° 0 mm 2 mps 667 mmHg 18%
    16:00 +35°C° 0 mm 1 mps 667 mmHg 17%
    17:00 +34°C° 0 mm 1 mps 667 mmHg 19%
    18:00 +32°C° 0 mm 1 mps 667 mmHg 21%
    19:00 +30°C° 0 mm 1 mps 667 mmHg 23%
    20:00 +29°C° 0 mm 1 mps 668 mmHg 24%
    21:00 +29°C° 0 mm 1 mps 668 mmHg 26%
    22:00 +28°C° 0 mm 1 mps 668 mmHg 27%
    23:00 +28°C° 0 mm 2 mps 668 mmHg 29%

    Tomorrow, 27 March, Wednesday

    Time Temperature Precipitation Wind Pressure Humidity
    00:00 +28°C° 0 mm 2 mps 668 mmHg 30%
    01:00 +27°C° 0 mm 3 mps 669 mmHg 31%
    02:00 +26°C° 0.2 mm 2 mps 668 mmHg 40%
    03:00 +26°C° 0.2 mm 2 mps 668 mmHg 50%
    04:00 +25°C° 0.2 mm 2 mps 668 mmHg 59%
    05:00 +25°C° 0 mm 1 mps 668 mmHg 57%
    06:00 +25°C° 0 mm 1 mps 669 mmHg 56%
    07:00 +24°C° 0 mm 0 mps 669 mmHg 55%
    08:00 +27°C° 0 mm 0 mps 670 mmHg 44%
    09:00 +33°C° 0 mm 1 mps 671 mmHg 34%
    10:00 +37°C° 0 mm 1 mps 672 mmHg 24%
    11:00 +36°C° 0 mm 1 mps 671 mmHg 24%
    12:00 +37°C° 0 mm 2 mps 671 mmHg 24%
    13:00 +36°C° 0 mm 2 mps 670 mmHg 24%
    14:00 +36°C° 0 mm 2 mps 670 mmHg 24%
    15:00 +36°C° 0 mm 2 mps 670 mmHg 23%
    16:00 +36°C° 0 mm 2 mps 669 mmHg 23%
    17:00 +34°C° 0.2 mm 2 mps 669 mmHg 30%
    18:00 +30°C° 0.2 mm 2 mps 669 mmHg 38%
    19:00 +28°C° 0.2 mm 2 mps 669 mmHg 45%
    20:00 +28°C° 0 mm 2 mps 669 mmHg 46%
    21:00 +27°C° 0 mm 1 mps 670 mmHg 46%
    22:00 +27°C° 0 mm 1 mps 670 mmHg 46%
    23:00 +27°C° 0 mm 1 mps 670 mmHg 47%

    Day after tomorrow, 28 March, Thursday

    Time Temperature Precipitation Wind Pressure Humidity
    00:00 +26°C° 0 mm 1 mps 670 mmHg 48%
    01:00 +26°C° 0 mm 1 mps 670 mmHg 49%
    02:00 +25°C° 0 mm 1 mps 670 mmHg 52%
    03:00 +25°C° 0 mm 1 mps 669 mmHg 54%
    04:00 +24°C° 0 mm 1 mps 669 mmHg 57%
    05:00 +24°C° 0 mm 2 mps 670 mmHg 57%
    06:00 +25°C° 0 mm 3 mps 670 mmHg 56%
    07:00 +25°C° 0 mm 3 mps 671 mmHg 56%
    08:00 +28°C° 0.1 mm 3 mps 671 mmHg 49%
    09:00 +30°C° 0.1 mm 3 mps 672 mmHg 42%
    10:00 +34°C° 0.1 mm 3 mps 672 mmHg 35%
    11:00 +35°C° 0 mm 3 mps 672 mmHg 30%
    12:00 +37°C° 0 mm 3 mps 671 mmHg 25%
    13:00 +38°C° 0 mm 4 mps 670 mmHg 21%
    14:00 +37°C° 0 mm 3 mps 670 mmHg 23%
    15:00 +36°C° 0 mm 3 mps 669 mmHg 24%
    16:00 +35°C° 0 mm 2 mps 668 mmHg 26%
    17:00 +32°C° 0 mm 2 mps 668 mmHg 29%
    18:00 +31°C° 0 mm 2 mps 669 mmHg 31%
    19:00 +29°C° 0 mm 2 mps 669 mmHg 34%
    20:00 +28°C° 0.1 mm 1 mps 669 mmHg 39%
    21:00 +27°C° 0.1 mm 1 mps 669 mmHg 43%
    22:00 +26°C° 0.1 mm 1 mps 669 mmHg 48%
    23:00 +25°C° 0 mm 1 mps 669 mmHg 50%

    29 March, Friday

    Time Temperature Precipitation Wind Pressure Humidity
    00:00 +24°C° 0 mm 1 mps 668 mmHg 51%
    01:00 +24°C° 0 mm 1 mps 668 mmHg 53%
    02:00 +23°C° 0 mm 1 mps 667 mmHg 54%
    03:00 +23°C° 0 mm 1 mps 667 mmHg 55%
    04:00 +23°C° 0 mm 1 mps 667 mmHg 56%
    05:00 +23°C° 0 mm 1 mps 667 mmHg 54%
    06:00 +24°C° 0 mm 1 mps 668 mmHg 52%
    07:00 +25°C° 0 mm 1 mps 669 mmHg 50%
    08:00 +28°C° 0 mm 1 mps 669 mmHg 42%
    09:00 +32°C° 0 mm 2 mps 670 mmHg 33%
    10:00 +36°C° 0 mm 3 mps 671 mmHg 24%
    11:00 +37°C° 0 mm 3 mps 670 mmHg 22%
    12:00 +38°C° 0 mm 3 mps 669 mmHg 20%
    13:00 +38°C° 0 mm 4 mps 669 mmHg 18%
    14:00 +38°C° 0 mm 3 mps 668 mmHg 19%
    15:00 +37°C° 0 mm 2 mps 668 mmHg 19%
    16:00 +37°C° 0 mm 2 mps 667 mmHg 20%
    17:00 +33°C° 0 mm 1 mps 667 mmHg 23%
    18:00 +31°C° 0 mm 1 mps 667 mmHg 27%
    19:00 +29°C° 0 mm 1 mps 667 mmHg 30%
    20:00 +29°C° 0 mm 1 mps 668 mmHg 30%
    21:00 +29°C° 0 mm 1 mps 668 mmHg 30%
    22:00 +29°C° 0 mm 1 mps 668 mmHg 29%
    23:00 +28°C° 0 mm 1 mps 668 mmHg 30%

    30 March, Saturday

    Time Temperature Precipitation Wind Pressure Humidity
    00:00 +28°C° 0 mm 1 mps 668 mmHg 31%
    01:00 +27°C° 0 mm 1 mps 667 mmHg 32%
    02:00 +26°C° 0 mm 1 mps 667 mmHg 35%
    03:00 +25°C° 0 mm 1 mps 667 mmHg 38%
    04:00 +23°C° 0 mm 1 mps 666 mmHg 40%
    05:00 +24°C° 0 mm 1 mps 667 mmHg 39%
    06:00 +25°C° 0 mm 1 mps 668 mmHg 38%
    07:00 +26°C° 0 mm 1 mps 668 mmHg 37%
    08:00 +29°C° 0 mm 2 mps 669 mmHg 31%
    09:00 +34°C° 0 mm 2 mps 670 mmHg 25%
    10:00 +37°C° 0 mm 3 mps 670 mmHg 20%
    11:00 +38°C° 0 mm 3 mps 669 mmHg 19%
    12:00 +38°C° 0 mm 4 mps 669 mmHg 18%
    13:00 +38°C° 0 mm 4 mps 668 mmHg 16%
    14:00 +38°C° 0 mm 4 mps 668 mmHg 17%
    15:00 +38°C° 0 mm 4 mps 667 mmHg 18%
    16:00 +37°C° 0 mm 3 mps 667 mmHg 18%
    17:00 +35°C° 0 mm 3 mps 667 mmHg 22%
    18:00 +31°C° 0 mm 2 mps 667 mmHg 25%
    19:00 +29°C° 0 mm 2 mps 667 mmHg 29%
    20:00 +28°C° 0 mm 2 mps 667 mmHg 31%
    21:00 +27°C° 0 mm 1 mps 667 mmHg 34%
    22:00 +26°C° 0 mm 1 mps 667 mmHg 37%
    23:00 +26°C° 0 mm 1 mps 667 mmHg 37%

    31 March, Sunday

    Time Temperature Precipitation Wind Pressure Humidity
    00:00 +26°C° 0 mm 1 mps 667 mmHg 38%
    01:00 +24°C° 0 mm 0 mps 667 mmHg 39%
    02:00 +25°C° 0 mm 1 mps 667 mmHg 41%
    03:00 +25°C° 0 mm 1 mps 667 mmHg 44%
    04:00 +24°C° 0 mm 1 mps 666 mmHg 46%
    05:00 +25°C° 0 mm 1 mps 667 mmHg 46%
    06:00 +25°C° 0 mm 1 mps 668 mmHg 46%
    07:00 +26°C° 0 mm 1 mps 668 mmHg 46%
    08:00 +29°C° 0 mm 1 mps 669 mmHg 40%
    09:00 +31°C° 0 mm 2 mps 669 mmHg 34%
    10:00 +35°C° 0 mm 2 mps 670 mmHg 28%
    11:00 +37°C° 0 mm 2 mps 669 mmHg 24%
    12:00 +39°C° 0 mm 1 mps 669 mmHg 21%
    13:00 +38°C° 0 mm 0 mps 669 mmHg 18%
    14:00 +37°C° 0.1 mm 1 mps 668 mmHg 23%
    15:00 +35°C° 0.1 mm 2 mps 667 mmHg 28%
    16:00 +31°C° 0.1 mm 2 mps 666 mmHg 33%
    17:00 +30°C° 0.2 mm 2 mps 666 mmHg 37%
    18:00 +29°C° 0.2 mm 2 mps 666 mmHg 40%
    19:00 +27°C° 0.2 mm 1 mps 667 mmHg 44%
    20:00 +27°C° 0 mm 1 mps 667 mmHg 45%
    21:00 +26°C° 0 mm 1 mps 667 mmHg 47%
    22:00 +26°C° 0 mm 1 mps 667 mmHg 48%
    23:00 +25°C° 0 mm 1 mps 667 mmHg 52%
    Show more